Wind_Speed
13 12 11 11 9 8 8 7 6 6 5 6 6 6 6 6 6 5 5 4 4 3 3 4 4 4 4 5 6 6 7 7 7 7 7 8 8 9 10 11 12 12 13
14 13 13 11 10 9 9 8 7 7 7 7 7 7 7 7 6 6 5 5 5 5 5 5 5 5 6 6 7 8 8 8 8 9 9 9 10 11 12 12 13 14 14
15 14 14 12 11 10 10 9 9 9 9 8 8 8 8 7 7 7 7 6 6 6 6 6 7 7 8 8 9 9 10 10 10 11 11 11 12 12 13 13 14 15 16
17 16 15 14 12 12 12 11 10 10 10 10 10 10 9 9 8 8 8 8 8 8 8 9 9 10 10 10 11 11 11 12 12 13 13 13 14 14 15 15 15 16 17
17 16 16 15 14 13 13 13 12 12 12 11 11 11 11 11 10 10 10 10 9 10 10 11 11 12 12 12 13 13 13 14 14 14 15 15 16 16 17 18 18 18 19
16 17 17 16 15 15 15 14 14 14 14 13 12 12 12 12 12 11 12 11 11 12 12 12 13 13 14 14 15 15 15 15 16 16 17 17 18 19 19 20 21 21 22
17 17 17 17 17 16 16 16 16 16 15 15 14 13 13 14 14 13 13 13 14 14 14 14 15 15 15 15 15 16 17 17 18 18 18 19 20 21 22 23 23 24 24
18 18 18 18 17 17 17 17 17 17 17 16 15 15 16 16 16 16 16 16 17 17 17 17 17 17 18 17 17 18 19 19 19 20 21 21 22 23 24 25 26 27 27
17 17 18 18 17 17 18 18 18 18 17 17 17 17 17 18 18 18 18 18 18 19 19 19 19 19 19 20 20 21 21 22 22 23 24 24 25 26 27 27 28 29 30
18 18 18 18 19 19 19 19 19 18 18 19 19 19 20 19 20 19 20 21 21 21 21 21 22 22 22 22 23 24 24 25 25 25 26 27 28 29 30 30 31 31 32
19 19 19 19 20 20 20 21 21 20 21 21 21 21 21 21 21 21 21 22 22 23 23 23 23 24 24 24 25 27 27 27 27 28 29 30 31 32 32 33 33 33 34
20 21 20 20 21 21 21 22 22 22 22 22 22 22 22 22 22 22 23 23 23 24 24 25 25 26 26 27 28 29 29 29 30 31 32 32 33 34 34 34 34 34 35
22 22 22 22 23 22 22 22 23 23 23 23 23 23 23 23 23 23 24 25 25 26 26 27 27 28 28 29 30 31 31 32 32 33 34 34 35 35 34 34 35 35 36
23 24 24 24 23 23 23 23 23 23 23 24 24 24 24 24 25 25 26 27 27 28 28 29 29 30 31 32 32 32 33 34 34 35 36 36 35 35 35 36 37 37 37
23 24 24 24 24 24 24 24 23 24 24 25 26 25 25 26 26 27 28 29 29 30 31 31 32 32 33 33 33 34 34 35 36 36 37 37 37 37 38 38 39 40 40
24 24 24 24 24 24 25 25 25 26 27 27 27 27 27 27 28 29 30 31 31 33 33 33 34 35 35 35 35 35 35 36 37 37 38 38 39 40 40 41 42 43 43
24 25 25 25 25 26 26 27 27 28 28 28 28 28 29 29 30 31 32 32 33 34 35 35 36 36 36 37 37 37 37 38 39 39 39 40 41 42 43 43 45 46 46
25 26 26 26 27 27 28 28 29 29 29 30 30 30 31 32 33 33 34 34 35 36 36 37 37 38 38 38 39 39 40 40 41 42 42 43 44 45 46 46 47 48 48
25 25 26 26 27 28 28 29 30 30 31 31 31 32 33 34 34 35 35 36 37 37 38 38 39 39 40 40 41 42 43 43 44 45 46 47 48 48 49 49 50 50 50
26 27 27 28 28 29 30 30 30 31 31 32 32 33 34 35 36 37 37 38 39 39 40 40 40 41 41 42 43 44 45 45 46 47 48 49 50 51 51 51 51 52 52
27 28 28 28 29 30 31 31 31 31 32 33 34 35 36 37 37 38 39 40 41 41 41 42 42 43 43 44 45 46 47 48 49 50 51 51 52 52 52 52 53 53 53
29 29 30 30 31 31 32 33 33 34 34 36 37 37 38 38 39 40 40 40 41 42 43 43 43 44 45 46 47 48 49 50 51 52 52 53 53 53 53 53 53 53 53
30 31 31 32 33 34 35 35 36 36 37 38 38 39 39 40 40 41 41 42 42 43 44 44 45 45 47 48 49 50 51 52 53 53 53 53 53 53 53 53 53 53 53
32 33 34 34 35 36 37 37 38 39 40 40 40 40 41 41 42 43 43 44 44 44 45 45 46 47 48 49 51 52 53 53 53 53 53 53 53 53 53 53 53 53 53
33 34 35 36 36 37 38 38 39 40 40 41 41 42 43 44 44 45 45 45 46 46 46 47 48 48 49 50 51 52 53 53 53 53 53 53 53 52 52 52 52 52 52
35 36 36 37 38 39 40 40 41 41 41 42 43 44 45 45 46 46 46 47 47 47 47 48 48 49 50 50 51 52 52 53 52 52 52 52 52 51 51 52 52 52 52
Wind_Direction
222 225 230 234 236 236 235 235 238 247 260 269 273 277 283 287 294 295 294 293 292 293 297 305 312 311 308 305 301 299 296 289 291 293 289 286 287 289 290 290 287 287 288
225 228 230 231 232 233 233 236 240 248 256 267 272 276 282 284 284 284 288 290 289 290 295 300 307 309 307 305 301 301 299 293 292 294 292 290 291 293 294 293 290 289 289
228 230 231 233 233 235 238 239 244 250 255 265 270 277 281 278 278 279 282 284 288 288 288 292 297 300 302 299 298 299 299 295 291 291 290 289 291 293 295 294 294 294 293
228 229 232 234 236 239 241 242 245 251 257 263 269 274 275 274 274 275 277 279 282 285 288 291 294 297 299 297 295 295 297 296 292 290 290 289 290 292 293 293 294 295 296
228 230 233 235 238 241 244 246 249 256 259 262 267 269 272 274 273 273 277 279 281 285 288 292 294 296 298 296 292 291 292 293 293 292 292 291 291 292 292 292 293 294 295
230 232 234 235 239 243 245 249 252 256 260 262 264 265 269 270 270 272 275 278 281 284 287 291 293 294 295 294 294 292 293 293 293 292 293 293 293 293 293 293 293 294 295
232 233 235 239 243 246 246 249 255 259 262 263 263 265 267 269 269 269 271 275 280 284 286 289 292 295 298 297 296 294 294 293 293 293 292 293 294 294 294 294 294 294 295
233 235 237 242 246 246 248 251 257 261 263 263 263 263 265 268 270 271 273 275 279 282 285 287 290 290 291 293 294 294 294 294 294 293 293 293 294 294 294 295 294 295 295
238 240 241 243 247 250 251 254 258 262 263 263 264 265 266 270 271 271 273 275 279 282 284 286 287 289 291 293 293 294 294 294 293 293 293 293 293 293 294 295 294 294 294
243 245 245 246 250 252 254 255 258 263 265 266 266 267 268 271 270 271 274 276 278 281 284 285 285 286 287 290 291 293 295 295 293 292 293 293 293 294 294 295 295 294 293
245 249 249 251 252 255 256 257 261 264 266 266 267 268 270 272 271 272 274 276 278 280 282 284 285 287 288 290 292 293 294 294 295 294 294 294 294 295 295 295 295 294 294
247 251 252 253 256 259 259 260 263 266 267 266 268 269 271 274 273 273 274 276 278 281 283 285 287 287 288 289 291 292 292 293 293 294 294 294 294 294 294 294 294 294 294
251 253 254 255 257 259 261 263 264 266 268 268 270 271 272 273 272 274 276 277 279 281 284 286 286 287 287 288 290 290 291 292 293 294 294 294 294 294 294 294 294 294 295
253 255 256 256 257 260 262 264 265 266 269 270 272 273 275 276 275 276 277 279 279 281 284 285 286 287 288 289 289 290 292 293 294 294 295 294 294 293 294 295 295 295 295
255 255 256 257 257 258 262 264 265 267 269 270 272 274 276 277 277 277 279 280 281 282 284 285 285 287 289 289 289 290 292 293 294 295 295 294 293 294 294 295 295 296 296
257 257 256 258 257 259 263 265 267 268 270 271 273 275 277 278 278 279 280 281 282 283 285 286 287 288 289 289 289 290 292 293 294 295 295 294 294 294 295 294 294 295 296
259 259 258 259 260 262 264 266 269 270 271 273 274 276 278 280 280 281 282 283 284 285 286 286 287 288 288 289 290 291 292 293 294 295 295 295 295 295 295 295 295 295 295
261 262 262 263 263 265 266 268 270 271 273 274 276 277 279 280 281 282 283 284 285 285 286 286 287 287 288 288 289 290 292 293 293 294 295 296 296 296 296 295 295 295 295
264 265 264 264 265 267 268 269 271 272 274 275 276 278 279 281 282 283 283 284 284 285 285 286 287 288 288 289 289 291 292 293 293 293 295 296 297 297 296 295 295 295 294
266 266 267 267 268 269 271 272 273 274 275 276 277 279 281 283 284 284 283 284 285 286 286 287 288 289 289 289 290 291 292 292 292 293 295 296 296 296 296 295 295 294 294
267 268 268 269 270 272 273 274 275 275 277 278 279 281 282 283 284 284 284 285 285 286 286 287 288 289 289 290 291 292 292 292 293 294 295 295 296 296 296 295 295 295 295
267 269 270 271 272 273 274 275 276 277 278 280 280 282 283 283 284 285 285 286 286 286 286 287 288 288 289 290 292 293 293 293 293 294 295 295 295 296 296 295 295 295 295
270 271 272 272 274 275 276 277 278 279 280 281 281 282 283 284 284 284 285 285 286 286 288 289 289 289 290 291 292 293 294 293 293 294 294 294 295 295 295 295 295 295 295
272 273 273 274 275 276 278 278 279 280 281 281 282 283 283 284 285 285 285 285 285 286 287 288 289 290 291 292 293 294 294 293 293 294 294 294 295 295 295 295 295 295 295
274 275 275 275 276 278 279 280 281 282 282 283 283 284 284 284 285 285 285 285 286 287 288 288 289 290 291 292 293 294 294 293 293 293 294 294 294 295 295 295 295 295 295
276 277 277 277 278 279 280 281 281 282 284 284 285 285 285 285 285 285 285 286 286 287 288 289 290 291 292 293 294 294 295 295 295 295 295 295 295 295 295 296 296 296 296
Height
5858 5860 5861 5862 5863 5864 5864 5865 5866 5866 5866 5866 5866 5866 5865 5865 5864 5863 5863 5863 5862 5862 5862 5861 5861 5860 5859 5859 5858 5858 5857 5857 5857 5856 5856 5855 5855 5854 5853 5852 5852 5851 5850
5856 5857 5859 5860 5861 5862 5863 5863 5864 5864 5865 5865 5864 5864 5864 5863 5863 5862 5862 5862 5862 5861 5861 5860 5860 5859 5858 5857 5857 5856 5855 5855 5854 5854 5854 5853 5853 5852 5851 5850 5849 5848 5847
5853 5855 5856 5858 5859 5860 5861 5861 5862 5862 5863 5863 5862 5862 5862 5861 5861 5861 5861 5860 5860 5860 5860 5859 5858 5857 5856 5856 5855 5854 5853 5852 5852 5851 5851 5850 5849 5849 5848 5847 5845 5844 5843
5850 5852 5853 5855 5856 5857 5858 5859 5859 5860 5860 5860 5860 5860 5860 5859 5859 5859 5859 5859 5859 5858 5858 5857 5856 5855 5854 5853 5852 5851 5850 5849 5848 5848 5847 5846 5846 5845 5844 5843 5842 5840 5838
5846 5849 5850 5852 5853 5854 5855 5856 5857 5857 5857 5858 5857 5857 5857 5857 5857 5856 5856 5856 5856 5856 5855 5855 5854 5853 5851 5850 5849 5848 5847 5846 5845 5844 5843 5842 5842 5841 5839 5838 5837 5836 5834
5843 5845 5847 5848 5850 5851 5852 5853 5853 5854 5854 5854 5854 5854 5854 5854 5854 5854 5854 5854 5853 5853 5852 5852 5851 5849 5848 5847 5846 5845 5843 5842 5841 5840 5839 5838 5837 5836 5834 5833 5832 5830 5829
5840 5842 5843 5845 5846 5847 5848 5849 5850 5850 5851 5851 5851 5851 5851 5851 5851 5851 5851 5850 5850 5849 5849 5848 5847 5846 5844 5843 5841 5840 5839 5838 5837 5836 5834 5833 5832 5830 5829 5827 5826 5824 5822
5836 5838 5840 5841 5842 5843 5844 5845 5846 5846 5846 5846 5847 5847 5847 5847 5847 5847 5847 5846 5846 5845 5845 5844 5843 5841 5840 5839 5837 5836 5834 5833 5831 5830 5829 5827 5826 5824 5822 5821 5819 5817 5815
5832 5834 5836 5837 5838 5839 5840 5841 5841 5842 5842 5842 5842 5842 5842 5842 5842 5842 5842 5841 5841 5841 5840 5839 5838 5836 5835 5833 5832 5831 5829 5827 5826 5824 5822 5820 5818 5817 5815 5813 5811 5809 5807
5829 5830 5831 5833 5834 5835 5836 5836 5837 5837 5837 5837 5837 5837 5837 5837 5837 5836 5836 5836 5836 5835 5834 5833 5832 5831 5830 5828 5826 5825 5823 5821 5819 5817 5815 5813 5811 5809 5806 5804 5802 5800 5798
5824 5826 5827 5828 5829 5830 5831 5832 5832 5832 5832 5832 5832 5832 5832 5831 5831 5831 5830 5830 5830 5829 5828 5827 5826 5825 5823 5821 5820 5818 5816 5814 5812 5809 5807 5805 5802 5800 5797 5795 5792 5789 5787
5820 5821 5822 5823 5824 5825 5825 5826 5826 5826 5826 5826 5826 5826 5826 5825 5825 5824 5824 5824 5823 5822 5821 5820 5819 5818 5816 5814 5812 5810 5808 5806 5804 5801 5798 5796 5793 5790 5787 5784 5782 5779 5776
5815 5816 5817 5818 5818 5819 5820 5820 5820 5820 5820 5820 5820 5820 5819 5819 5818 5818 5817 5817 5816 5815 5814 5813 5811 5810 5808 5806 5804 5802 5800 5797 5795 5792 5789 5786 5783 5780 5777 5775 5772 5769 5766
5809 5810 5811 5812 5812 5813 5813 5813 5814 5814 5814 5814 5814 5813 5813 5812 5811 5811 5810 5809 5808 5807 5806 5805 5803 5801 5799 5797 5795 5793 5790 5787 5784 5782 5779 5776 5772 5770 5767 5764 5762 5759 5756
5803 5804 5805 5805 5806 5806 5807 5807 5807 5807 5807 5807 5807 5806 5806 5805 5804 5804 5802 5801 5800 5799 5798 5796 5794 5792 5790 5788 5785 5783 5780 5777 5774 5771 5768 5765 5762 5759 5756 5753 5750 5747 5744
5797 5798 5798 5799 5799 5800 5800 5800 5799 5800 5799 5799 5799 5799 5798 5797 5796 5796 5794 5793 5792 5790 5788 5787 5785 5782 5780 5778 5775 5773 5770 5767 5763 5760 5757 5754 5751 5748 5745 5741 5738 5734 5731
5790 5791 5791 5792 5792 5793 5793 5793 5793 5792 5792 5792 5791 5790 5790 5789 5788 5787 5786 5784 5783 5781 5779 5777 5774 5772 5770 5767 5765 5762 5759 5756 5752 5749 5746 5742 5739 5735 5732 5729 5725 5721 5717
5783 5784 5784 5785 5785 5785 5785 5785 5785 5784 5784 5783 5783 5782 5781 5780 5779 5777 5776 5774 5773 5770 5768 5766 5763 5761 5759 5756 5753 5751 5748 5744 5741 5737 5734 5730 5726 5723 5719 5715 5711 5707 5703
5776 5776 5777 5777 5777 5777 5777 5777 5776 5776 5775 5774 5774 5773 5771 5770 5768 5767 5765 5764 5762 5759 5757 5755 5752 5750 5747 5744 5742 5739 5735 5732 5728 5725 5721 5717 5713 5709 5705 5701 5696 5692 5688
5768 5768 5769 5769 5769 5768 5768 5768 5767 5766 5766 5765 5764 5763 5761 5760 5758 5756 5754 5752 5750 5748 5745 5743 5740 5738 5735 5732 5729 5726 5723 5719 5715 5711 5708 5703 5699 5694 5690 5685 5681 5676 5672
5760 5760 5760 5760 5760 5760 5759 5758 5758 5757 5756 5755 5754 5752 5750 5749 5747 5745 5743 5740 5738 5735 5733 5730 5728 5725 5722 5719 5716 5712 5709 5705 5701 5697 5693 5689 5684 5679 5674 5670 5665 5660 5656
5752 5752 5751 5751 5751 5750 5750 5749 5748 5747 5746 5744 5743 5741 5739 5737 5735 5733 5730 5728 5725 5723 5720 5718 5715 5712 5709 5705 5702 5698 5694 5690 5686 5682 5678 5673 5668 5664 5659 5654 5649 5644 5639
5743 5743 5742 5742 5741 5741 5740 5739 5737 5736 5735 5733 5731 5729 5727 5725 5723 5720 5718 5715 5713 5710 5707 5704 5702 5698 5695 5691 5687 5683 5679 5675 5670 5666 5662 5657 5653 5648 5643 5638 5633 5629 5624
5733 5733 5732 5732 5731 5730 5729 5728 5726 5725 5723 5721 5719 5717 5715 5712 5710 5707 5705 5702 5699 5697 5693 5690 5687 5684 5680 5677 5672 5668 5663 5659 5654 5650 5645 5641 5637 5632 5627 5622 5618 5613 5608
5723 5722 5722 5721 5720 5719 5717 5716 5714 5712 5710 5708 5706 5704 5702 5699 5697 5694 5691 5688 5686 5683 5680 5676 5673 5669 5666 5662 5657 5653 5648 5643 5638 5633 5629 5625 5620 5616 5611 5607 5602 5597 5592
5712 5711 5710 5709 5708 5706 5705 5704 5702 5700 5698 5695 5693 5691 5688 5686 5683 5680 5677 5674 5671 5668 5665 5662 5658 5655 5651 5647 5642 5638 5633 5628 5623 5618 5613 5609 5605 5601 5596 5591 5587 5582 5577